IBE0117 LEMD-SCEL

Flight info

Callsign IBE0117
Flight time N/A
Altitude 30000
Route BARDI DCT RIVRO/N0497F330 DCT ERPES/M085F340 DCT LENSI DCT 3430N03000W/M085F360 25N040W DCT ROHPL/N0490F380 DCT 15N047W 10N050W DCT CYR UL306 NISKI DCT GEKUB/N0485F400 DCT DEMIT DCT BUVAG DCT ILRES UL322 ASIMO ASIMO1B
Aircraft A359/H-SDE2E3GHIJ3J4J5LM1ORWXY/LB1D1

Departure

Time 2026-04-30 22:11
Airport Adolfo Suárez Madrid–Barajas Airport (LEMD)

Arrival

Time N/A
Airport Comodoro Arturo Merino Benítez International Airport (SCEL)
Time Latitude Longitude Altitude Speed Heading
2026-04-30 21:34 40.49694 -3.56646 1977 ft 0 kts 267°
2026-04-30 21:51 40.49695 -3.56626 1970 ft 3 kts 267°
2026-04-30 21:52 40.49696 -3.56601 1962 ft 3 kts 267°
2026-04-30 21:52 40.49697 -3.56575 1978 ft 3 kts 256°
2026-04-30 21:52 40.49703 -3.56552 1979 ft 3 kts 238°
2026-04-30 21:54 40.49709 -3.56541 1975 ft 3 kts 228°
2026-04-30 21:54 40.49724 -3.56524 1979 ft 3 kts 208°
2026-04-30 21:55 40.49741 -3.56515 1976 ft 3 kts 188°
2026-04-30 21:55 40.49753 -3.56513 1977 ft 0 kts 178°
2026-04-30 21:59 40.49705 -3.56548 1975 ft 3 kts 234°
2026-04-30 22:00 40.49721 -3.56526 1980 ft 0 kts 210°
2026-04-30 22:02 40.49699 -3.56533 1976 ft 12 kts 193°
2026-04-30 22:03 40.49611 -3.56541 1976 ft 12 kts 182°
2026-04-30 22:03 40.49530 -3.56543 1976 ft 12 kts 180°
2026-04-30 22:03 40.49450 -3.56544 1979 ft 12 kts 180°
2026-04-30 22:03 40.49370 -3.56544 1975 ft 11 kts 180°
2026-04-30 22:04 40.49292 -3.56543 1976 ft 11 kts 179°
2026-04-30 22:04 40.49215 -3.56542 1976 ft 11 kts 179°
2026-04-30 22:04 40.49211 -3.56542 1976 ft 11 kts 179°
2026-04-30 22:05 40.49147 -3.56540 1976 ft 11 kts 180°
2026-04-30 22:05 40.49074 -3.56540 1976 ft 11 kts 179°
2026-04-30 22:06 40.49000 -3.56539 1980 ft 10 kts 181°
2026-04-30 22:06 40.48874 -3.56573 1982 ft 6 kts 221°
2026-04-30 22:06 40.48865 -3.56608 1980 ft 3 kts 255°
2026-04-30 22:07 40.48862 -3.56647 1979 ft 4 kts 266°
2026-04-30 22:07 40.48861 -3.56671 1979 ft 0 kts 266°
2026-04-30 22:07 40.48861 -3.56711 1980 ft 13 kts 269°
2026-04-30 22:07 40.48861 -3.56869 1983 ft 17 kts 270°
2026-04-30 22:08 40.48860 -3.57016 1985 ft 15 kts 270°
2026-04-30 22:08 40.48860 -3.57144 1988 ft 13 kts 274°
2026-04-30 22:08 40.48903 -3.57218 1989 ft 10 kts 342°
2026-04-30 22:08 40.48967 -3.57229 1989 ft 9 kts 353°
2026-04-30 22:09 40.49019 -3.57258 1992 ft 7 kts 322°
2026-04-30 22:09 40.49053 -3.57298 1994 ft 6 kts 318°
2026-04-30 22:09 40.49083 -3.57334 1994 ft 6 kts 318°
2026-04-30 22:09 40.49114 -3.57373 1993 ft 6 kts 315°
2026-04-30 22:10 40.49153 -3.57420 1992 ft 10 kts 326°
2026-04-30 22:10 40.49215 -3.57449 1993 ft 10 kts 356°
2026-04-30 22:10 40.49289 -3.57452 1990 ft 11 kts 358°
2026-04-30 22:10 40.49464 -3.57454 1990 ft 52 kts
2026-04-30 22:11 40.50997 -3.57458 2057 ft 157 kts
2026-04-30 22:11 40.52113 -3.57410 2519 ft 163 kts
2026-04-30 22:11 40.53279 -3.57309 3027 ft 174 kts
2026-04-30 22:12 40.54539 -3.57311 3313 ft 188 kts 357°
2026-04-30 22:12 40.55897 -3.57391 3505 ft 203 kts 357°
2026-04-30 22:12 40.57361 -3.57452 3712 ft 217 kts 358°
2026-04-30 22:12 40.58912 -3.57487 3958 ft 228 kts 359°
2026-04-30 22:13 40.60518 -3.57216 4227 ft 240 kts 19°
2026-04-30 22:13 40.62067 -3.56347 4675 ft 243 kts 24°
2026-04-30 22:13 40.63681 -3.55748 5107 ft 248 kts
2026-04-30 22:13 40.65473 -3.55690 5387 ft 262 kts 358°
2026-04-30 22:14 40.67312 -3.55724 5779 ft 270 kts 358°
2026-04-30 22:14 40.69208 -3.55742 6300 ft 275 kts 359°
2026-04-30 22:14 40.71140 -3.55751 6812 ft 280 kts 359°
2026-04-30 22:14 40.73103 -3.55757 7361 ft 284 kts 359°
2026-04-30 22:15 40.75054 -3.55760 7940 ft 286 kts 359°
2026-04-30 22:15 40.76240 -3.55816 8273 ft 289 kts 353°
2026-04-30 22:16 40.78149 -3.56578 8810 ft 289 kts 327°
2026-04-30 22:16 40.79586 -3.58394 9372 ft 288 kts 299°
2026-04-30 22:17 40.78943 -3.65726 10632 ft 300 kts 233°
2026-04-30 22:17 40.77967 -3.68238 10835 ft 318 kts 251°
2026-04-30 22:17 40.76846 -3.74175 11290 ft 347 kts 256°
2026-04-30 22:18 40.76309 -3.77303 11532 ft 360 kts 255°
2026-04-30 22:18 40.75159 -3.83934 12186 ft 377 kts 255°
2026-04-30 22:19 40.73972 -3.90711 13257 ft 382 kts 255°
2026-04-30 22:19 40.73369 -3.94137 13805 ft 384 kts 255°
2026-04-30 22:19 40.72151 -4.01030 14722 ft 388 kts 255°
2026-04-30 22:20 40.71534 -4.04517 15176 ft 391 kts 255°
2026-04-30 22:20 40.70289 -4.11528 16143 ft 396 kts 255°
2026-04-30 22:20 40.69658 -4.15070 16590 ft 399 kts 255°
2026-04-30 22:21 40.69022 -4.18635 17104 ft 400 kts 255°
2026-04-30 22:21 40.68383 -4.22211 17600 ft 402 kts 255°
2026-04-30 22:21 40.67737 -4.25810 18063 ft 405 kts 255°
2026-04-30 22:21 40.67085 -4.29435 18511 ft 408 kts 255°
2026-04-30 22:22 40.66429 -4.33080 18909 ft 410 kts 255°
2026-04-30 22:22 40.65767 -4.36751 19305 ft 413 kts 255°
2026-04-30 22:22 40.65102 -4.40438 19700 ft 416 kts 255°
2026-04-30 22:22 40.64429 -4.44158 20110 ft 419 kts 255°
2026-04-30 22:23 40.63751 -4.47895 20536 ft 421 kts 255°
2026-04-30 22:23 40.63050 -4.51647 20954 ft 423 kts 253°
2026-04-30 22:23 40.62024 -4.55276 21363 ft 425 kts 242°
2026-04-30 22:23 40.60491 -4.58534 21784 ft 426 kts 234°
2026-04-30 22:24 40.58719 -4.61686 22228 ft 429 kts 233°
2026-04-30 22:24 40.56920 -4.64818 22672 ft 431 kts 233°
2026-04-30 22:24 40.55104 -4.67984 23090 ft 434 kts 233°
2026-04-30 22:24 40.53284 -4.71168 23480 ft 438 kts 233°
2026-04-30 22:25 40.51449 -4.74380 23889 ft 441 kts 233°
2026-04-30 22:25 40.49605 -4.77611 24249 ft 443 kts 233°
2026-04-30 22:25 40.47806 -4.80904 24614 ft 445 kts 237°
2026-04-30 22:25 40.46318 -4.84480 24969 ft 448 kts 245°
2026-04-30 22:26 40.44779 -4.92413 25727 ft 453 kts 264°
2026-04-30 22:26 40.44791 -4.96561 26078 ft 458 kts 273°
2026-04-30 22:26 40.45178 -5.00719 26419 ft 461 kts 276°
2026-04-30 22:27 40.45643 -5.04892 26787 ft 462 kts 276°
2026-04-30 22:27 40.46106 -5.09067 27151 ft 464 kts 276°
2026-04-30 22:27 40.47017 -5.17502 27802 ft 468 kts 276°
2026-04-30 22:28 40.47917 -5.26011 28436 ft 472 kts 276°
2026-04-30 22:28 40.48366 -5.30293 28723 ft 474 kts 276°
2026-04-30 22:29 40.49704 -5.43173 29935 ft 472 kts 275°
2026-04-30 22:29 40.50144 -5.47442 30328 ft 471 kts 275°
2026-04-30 22:30 40.51875 -5.64403 31557 ft 468 kts 275°
2026-04-30 22:31 40.53154 -5.77095 32465 ft 465 kts 275°
2026-04-30 22:32 40.54415 -5.89752 33134 ft 467 kts 276°
2026-04-30 22:32 40.55255 -5.98278 33138 ft 471 kts 276°
2026-04-30 22:33 40.57331 -6.19590 33142 ft 470 kts 275°
2026-04-30 22:35 40.59370 -6.40899 33142 ft 469 kts 275°
2026-04-30 22:36 40.61351 -6.62143 33145 ft 469 kts 275°
2026-04-30 22:37 40.62028 -6.79202 33145 ft 466 kts 266°
2026-04-30 22:38 40.61336 -6.96232 33149 ft 466 kts 265°
2026-04-30 22:39 40.60850 -7.07552 33157 ft 466 kts 266°
2026-04-30 22:40 40.59747 -7.33063 33158 ft 465 kts 265°
2026-04-30 22:41 40.58787 -7.54288 33158 ft 465 kts 265°
2026-04-30 22:43 40.57584 -7.79711 33164 ft 463 kts 266°
2026-04-30 22:44 40.56755 -7.96620 33165 ft 462 kts 266°
2026-04-30 22:45 40.55467 -8.21877 33165 ft 461 kts 266°
2026-04-30 22:47 40.54134 -8.46981 33158 ft 459 kts 266°
2026-04-30 22:48 40.53216 -8.63692 33155 ft 458 kts 266°
2026-04-30 22:49 40.51794 -8.88741 33154 ft 458 kts 266°
2026-04-30 22:51 40.50321 -9.13735 33157 ft 457 kts 266°
2026-04-30 22:52 40.49564 -9.26222 33158 ft 456 kts 266°
2026-04-30 22:53 40.48539 -9.42783 33158 ft 456 kts 266°
2026-04-30 22:53 40.47752 -9.55245 33154 ft 456 kts 266°
2026-04-30 22:55 40.46414 -9.75974 33154 ft 456 kts 266°
2026-04-30 22:56 40.45316 -9.92558 33138 ft 455 kts 265°
2026-04-30 22:57 40.43911 -10.13262 33156 ft 455 kts 265°
2026-04-30 22:58 40.42766 -10.29749 33154 ft 455 kts 265°
2026-04-30 22:59 40.40998 -10.54542 33146 ft 455 kts 265°